Regional Weather Roundup
Issued by NWS

Current Version | Previous Version | Text Only | Print | Product List | Glossary On
Versions: 1 2 3 4 5 6 7 8 9 10 11 12 13 14 15 16 17 18 19 20 21 22 23 24 25 26 27 28 29 30 31 32 33 34 35 36 37 38 39 40 41 42 43 44 45 46 47 48 49 50
000
ASUS46 KPQR 051510
RWROR

OREGON REGIONAL WEATHER ROUNDUP
NATIONAL WEATHER SERVICE PORTLAND OR
800 AM PDT SUN JUL 05 2015

NOTE: "FAIR" INDICATES FEW OR NO CLOUDS BELOW 12,000 FEET WITH
NO SIGNIFICANT WEATHER AND/OR OBSTRUCTIONS TO VISIBILITY.

ORZ001>013-051600-
NORTHWEST OREGON


CITY           SKY/WX    TMP DP  RH WIND       PRES   REMARKS
ASTORIA        CLOUDY    59  56  89 SE6       29.84R
NEWPORT        CLOUDY    57  54  88 SW6       29.89S
PORTLAND       MOSUNNY   71  59  65 NW5       29.83R
VANCOUVER WA   MOSUNNY   70  57  63 SW3       29.83R
SCAPPOOSE      MOSUNNY   69  59  70 CALM      29.83R
HILLSBORO      MOSUNNY   70  58  65 NW3       29.82S
AURORA         MOSUNNY   68  55  63 CALM      29.84R
MCMINNVILLE    MOSUNNY   64  53  67 SW5       29.84R
SALEM          SUNNY     69  51  52 S6        29.82S
CORVALLIS      SUNNY     63  52  67 W3        29.86R
EUGENE         MOSUNNY   67  49  52 SW7       29.85S
$$

ORZ021-028-051600-
SOUTHWEST OREGON


CITY           SKY/WX    TMP DP  RH WIND       PRES   REMARKS
NORTH BEND     CLOUDY    57  57 100 SE3       29.89R
BROOKINGS      FOG       57  57 100 SE7       29.91R VSB 3/4
ROSEBURG       PTSUNNY   68  57  68 CALM      29.86R
SEXTON SUMMIT  CLOUDY    73  49  42 S3        29.99R
MEDFORD        CLOUDY    78  53  41 N6        29.87R
$$

ORZ014>016-041-051600-
COLUMBIA GORGE


CITY           SKY/WX    TMP DP  RH WIND       PRES   REMARKS
TROUTDALE      MOSUNNY   73  58  59 CALM      29.82R
THE DALLES     MOSUNNY   78  55  44 NW5       29.80R
$$

ORZ029>031-041-044-049-050-061>064-502-503-505>511-051600-
EASTERN OREGON


CITY           SKY/WX    TMP DP  RH WIND       PRES   REMARKS
REDMOND        MOSUNNY   69  43  38 CALM      29.95R
BEND             N/A    N/A N/A N/A MISG        N/A
PRINEVILLE     SUNNY     70  43  37 VRB3      29.95S
KLAMATH FALLS  PTSUNNY   70  54  56 SE13G22   30.05R
LAKEVIEW       CLOUDY    59  55  88 S13       30.11F
HERMISTON      MOSUNNY   80  43  26 W5        29.80R
PENDLETON      MOSUNNY   79  38  22 NW10      29.83R
JOHN DAY       CLOUDY    69  43  39 CALM      29.97S
MEACHAM        SUNNY     71  44  37 CALM      29.95S
LA GRANDE      SUNNY     75  43  31 NW12      29.89S
BAKER CITY     MOSUNNY   70  52  52 S5        29.93R
BURNS          CLOUDY    70  40  33 CALM      30.02S
ROME             N/A     70  58  65 S14       30.01R
ONTARIO        CLOUDY    77  47  34 SW7       29.85S
$$



USA.gov is the U.S. government's official web portal to all federal, state and local government web resources and services.